カタログに戻る

FENGYUN 1C DEB

運用中PO
NORAD 30811·DEBRIS·🇨🇳 China

打ち上げ May 10, 1999 から Taiyuan Satellite Launch Center

Loading…

次のパス (今後24時間)

TLE

最新Source: Space-Track

元期: Sep 14, 2026, 11:21 UTC

1 30811U 99025AUV 26257.47343188  .00001003  00000-0  10307-2 0  9995
2 30811  98.7612 274.5367 0278018  45.6115 316.7436 13.62619352966212

AllMySatでFENGYUN 1C DEBをリアルタイム追跡

Download on the App Store